Main page
METAR-TAF:

METAR-TAF

Airports :

McGhee Tyson Airport

Knoxville, Iowa, United States

latitude: 41-18N, longitude: 093-07W, elevation: 928 ft

Current weather observation

The report was made 27 minutes ago, at 11:15 UTC
Wind 12 mph from the North/Northwest
Temperature 63°F
Humidity 100%
Pressure 29.79 in. Hg
Visibility: 1.25 miles
Overcast at a height of 300 ft
heavy rain

METAR: KOXV 201115Z AUTO 33010KT 1 1/4SM +RA OVC003 17/17 A2979 RMK AO2

Time: 06:42 (11:42 UTC)


TAF: missing

Weather observations and forecasts of more than 4000 airports (METAR and TAF reports).

The available stations are represented by yellow and red dots on the map.

Hover mouse over dot to see the name of the station.

Then click to see weather observations and forecasts.

To change the map : click on the green buttons with a black cross to zoom in, on the green button with a dash to zoom out, or on the green arrows for adjacent maps.


METAR-TAF: